GW0203 Weather Reports


time (UTC)temp
F
wind
direction
speed
knots
gust
knots
rain 1hr
in
rain 24hr
in
rain mn
in
humidity
%
barometer
mb
20260904053404 70 194 2.6 2.6 0.00 0.00 0.00 99 1009.4
20260904051904 70 159 0.0 1.7 0.00 0.00 0.00 99 1009.8
20260904050402 71 168 1.7 2.6 0.00 0.00 0.00 99 1009.7
20260904044902 71 189 4.3 4.3 0.00 0.00 0.00 99 1009.9
20260904043358 71 175 0.0 2.6 0.00 0.00 0.00 99 1010.2
20260904041855 71 166 0.0 0.0 0.00 0.00 0.00 99 1010.3
20260904040353 71 270 0.0 1.7 0.00 0.00 0.00 99 1010.4
20260904034851 71 193 0.0 2.6 0.00 0.24 0.24 99 1010.1
20260904033350 71 148 0.0 1.7 0.00 0.24 0.24 99 1010.3
20260904031845 72 324 0.0 2.6 0.00 0.24 0.24 99 1010.5
20260904030344 72 190 1.7 1.7 0.00 0.24 0.24 99 1010.3
20260904024841 72 172 0.0 1.7 0.00 0.24 0.24 99 1010.3
20260904023340 72 189 4.3 4.3 0.00 0.24 0.24 99 1010.6
20260904021838 73 229 1.7 2.6 0.00 0.24 0.24 98 1010.8
20260904020335 73 209 0.9 2.6 0.00 0.24 0.24 98 1010.9
20260904014833 73 170 0.0 4.3 0.00 0.24 0.24 98 1010.9
20260904013332 73 255 0.0 2.6 0.00 0.24 0.24 98 1011.1
20260904011827 73 204 1.7 2.6 0.00 0.24 0.24 98 1011.3
20260904010326 73 255 0.0 1.7 0.00 0.24 0.24 97 1011.3
20260904004823 73 270 0.9 3.5 0.00 0.24 0.24 97 1011.1
20260904003322 73 206 0.9 3.5 0.00 0.24 0.24 97 1011.0
20260904001817 74 210 1.7 1.7 0.00 0.24 0.24 96 1010.7
20260904000313 74 229 0.0 1.7 0.00 0.24 0.24 95 1010.2
20260903234809 74 206 0.0 3.5 0.00 0.24 0.24 95 1010.2
20260903233303 75 182 2.6 2.6 0.00 0.24 0.24 94 1010.3
20260903231803 75 194 0.0 2.6 0.00 0.24 0.24 93 1010.2
20260903230259 76 186 0.0 1.7 0.00 0.24 0.24 92 1010.2
20260903224754 77 191 1.7 2.6 0.00 0.24 0.24 90 1010.4
20260903223249 78 203 0.9 2.6 0.00 0.24 0.24 87 1010.2
20260903221744 80 15 0.9 4.3 0.00 0.24 0.24 85 1010.3
20260903220242 81 255 0.0 5.2 0.00 0.24 0.24 84 1010.4
20260903214741 83 227 2.6 2.6 0.00 0.24 0.24 79 1010.3
20260903213239 82 189 3.5 3.5 0.00 0.24 0.24 80 1010.1
20260903211736 79 230 2.6 4.3 0.00 0.24 0.24 84 1010.4
20260903210236 81 187 0.9 2.6 0.00 0.24 0.24 82 1010.4
20260903204736 80 321 3.5 6.1 0.00 0.24 0.24 83 1010.3
20260903203235 80 321 0.0 4.3 0.00 0.24 0.24 82 1010.3
20260903201730 81 188 1.7 4.3 0.00 0.24 0.24 83 1010.7
20260903200226 82 198 7.0 8.7 0.00 0.24 0.24 80 1010.7
20260903194722 82 181 4.3 4.3 0.00 0.24 0.24 81 1010.7
20260903193219 83 239 1.7 2.6 0.00 0.24 0.24 79 1010.9
20260903191719 80 335 4.3 6.1 0.00 0.24 0.24 81 1011.2
20260903190214 80 151 0.0 6.1 0.00 0.24 0.24 81 1011.3
20260903184712 80 261 0.9 2.6 0.00 0.24 0.24 84 1011.6
20260903183208 80 254 1.7 5.2 0.00 0.24 0.24 83 1011.5
20260903181707 80 6 4.3 4.3 0.00 0.24 0.24 84 1011.3
20260903180203 82 211 2.6 6.1 0.00 0.24 0.24 80 1011.6
20260903174702 81 209 1.7 5.2 0.00 0.24 0.24 83 1011.6
20260903173200 80 220 0.0 7.0 0.00 0.24 0.24 86 1011.6
20260903171655 80 337 0.0 1.7 0.00 0.24 0.24 88 1011.8
20260903170152 77 209 2.6 7.0 0.00 0.24 0.24 91 1012.1
20260903164651 78 206 1.7 3.5 0.00 0.24 0.24 90 1011.9
20260903163149 76 195 0.9 5.2 0.00 0.24 0.24 92 1011.9
20260903161648 75 199 4.3 4.3 0.00 0.24 0.24 93 1011.7
20260903160144 75 204 1.7 4.3 0.00 0.24 0.24 92 1011.9
20260903154640 73 162 0.0 2.6 0.00 0.24 0.24 96 1011.8
20260903153138 72 202 3.5 5.2 0.00 0.24 0.24 98 1012.5
20260903151635 71 225 1.7 3.5 0.00 0.24 0.24 99 1012.6
20260903150132 71 276 1.7 2.6 0.00 0.24 0.24 99 1012.8
20260903144631 71 157 0.0 4.3 0.00 0.24 0.24 99 1012.9
20260903143131 71 175 2.6 7.0 0.00 0.24 0.24 99 1013.0
20260903141630 71 270 0.9 3.5 0.00 0.24 0.24 99 1013.0
20260903140128 71 325 0.0 3.5 0.00 0.24 0.24 99 1013.6
20260903134628 71 220 3.5 8.7 0.02 0.24 0.24 99 1013.7
20260903133124 71 206 0.0 4.3 0.00 0.24 0.24 99 1013.7
20260903131619 71 300 0.0 1.7 0.00 0.24 0.24 99 1013.6
20260903130120 71 270 0.0 1.7 0.00 0.24 0.24 99 1013.7
20260903124619 70 204 1.7 3.5 0.00 0.24 0.24 99 1013.6
20260903123118 70 195 0.0 4.3 0.00 0.24 0.24 99 1013.7
20260903121617 70 105 0.0 3.5 0.00 0.24 0.24 99 1014.0
20260903120113 70 249 0.0 3.5 0.00 0.24 0.24 99 1014.4
20260903114613 69 126 0.0 1.7 0.00 0.24 0.24 99 1014.3
20260903113112 69 144 0.0 4.3 0.00 0.24 0.24 99 1014.3
20260903111607 69 166 0.0 3.5 0.02 0.23 0.23 99 1014.4
20260903110105 68 154 0.9 3.5 0.02 0.23 0.23 99 1014.4
20260903104601 67 168 0.0 1.7 0.00 0.22 0.22 99 1014.2
20260903103100 67 114 0.0 3.5 0.00 0.22 0.22 99 1014.1
20260903101555 67 240 0.0 2.6 0.02 0.21 0.21 99 1013.8
20260903100055 66 108 2.6 2.6 0.02 0.21 0.21 99 1014.0
20260903094554 66 160 0.0 2.6 0.00 0.20 0.20 99 1014.0
20260903093051 66 100 1.7 2.6 0.90 0.20 0.20 99 1014.4
20260903091549 65 123 1.7 3.5 0.09 0.06 0.06 99 1014.4
20260903090044 65 106 0.9 1.7 0.02 0.03 0.03 99 1014.4
20260903084543 65 102 1.7 1.7 0.00 0.03 0.03 98 1014.5
20260903083039 65 117 0.0 1.7 0.02 0.02 0.02 98 1014.9
20260903081536 64 162 1.7 2.6 0.00 0.02 0.02 98 1014.9
20260903080031 64 129 1.7 3.5 0.00 0.02 0.02 97 1014.9
20260903074531 64 147 1.7 2.6 0.00 0.02 0.02 97 1015.2
20260903073030 64 125 1.7 2.6 0.00 0.02 0.02 97 1015.5
20260903071529 64 103 0.0 4.3 0.05 0.02 0.02 96 1015.8
20260903070026 64 114 1.7 2.6 0.00 0.01 0.01 93 1016.0
20260903064524 65 0 0.0 1.7 0.05 0.01 0.01 90 1016.5
20260903063022 66 180 0.0 1.7 0.00 0.00 0.00 85 1016.6
20260903061520 66 99 0.0 0.9 0.00 0.00 0.00 85 1016.6
20260903060021 66 165 1.7 1.7 0.00 0.00 0.00 85 1017.0